www.pogodaiklimat.ru

Погода и климат >> Архив погоды >> Россия >> Ямало-Ненецкий АО >> Полуй


ПОГОДА в Полуе

  • Прогноз погоды в Полуе
  • Монитор погоды в Полуе
  • Климат города

АРХИВ ПОГОДЫ в Полуе

Время (UTC), дата Ветер
(напр.,м/с)
 
Видим.   Явления Облачность Т
(С)
Тd
(С)
f
(%)
Тe
(С)
Тes
(С)
Комфортность P
(гПа)
Po
(гПа)
Тmin
(С)
Tmax
(С)
R
(мм)
R24
(мм)
S
(см)
06 9.12 штиль 0 н/о н/о -14.7 -17.0 83 -15 -15 1019.0 1014.3 -15.1
09 9.12 штиль 0 50 км 10/0
[As op]
-14.8 -17.1 83 -15 -15 1019.5 1014.8
12 9.12 Ю 1 50 км [диам. изморози 5 мм] н/о -12.2 -14.3 84 -14 -14 1018.9 1014.2
15 9.12 ЮЗ 2 20 км слабый снег 10/0
[As op]
-10.2 -12.2 85 -15 -15 1018.0 1013.4 -10.1 0.0
18 9.12 ЮЗ 3 50 км н/о -9.3 -11.0 87 -15 -15 1017.4 1012.8
21 9.12 ЮЗ 3 50 км 10/0
[Ac As]
-10.1 -11.9 87 -16 -16 1017.2 1012.6
00 10.12 ЮЗ 3 н/о н/о -10.6 -12.5 86 -17 -17 1017.0 1012.4
03 10.12 ЮЗ 1 50 км 10/0
[Ac As]
-11.3 -13.3 85 -14 -14 1017.2 1012.5 -11.4 0.0 38
06 10.12 ЮЗ 2 н/о н/о -11.4 -13.4 85 -16 -16 1017.7 1013.0 -11.4
09 10.12 ЮЗ 1 50 км 10/0
[Ac As]
-12.2 -14.3 84 -14 -14 1018.3 1013.6
12 10.12 ЮЗ 1 50 км [диам. изморози 5 мм] н/о -12.8 -15.0 84 -15 -15 1019.0 1014.4
15 10.12 ЮЗ 2 50 км 10/0
[Ac As]
-10.7 -12.7 85 -15 -15 1019.4 1014.8 -10.6
18 10.12 Ю 2 н/о н/о -12.8 -14.9 84 -17 -17 1019.1 1014.4
21 10.12 Ю 3 50 км 10/0
[As trans]
-11.9 -14.0 84 -18 -18 1019.0 1014.4
00 11.12 ЮЗ 2 н/о н/о -9.5 -11.3 87 -14 -14 1018.6 1013.9
03 11.12 ЮЗ 2 50 км 10/0
[Ac As]
-6.7 -8.1 90 -11 -11 1017.6 1013.1 -13.0 38
06 11.12 ЮЗ 2 н/о н/о -5.6 -6.9 91 -10 -10 1017.1 1012.6
09 11.12 ЮЗ 2 20 км слабый снег 10/8 300 м
[Frnb As op]
-6.3 -7.7 90 -11 -11 1016.7 1012.2
12 11.12 ЮЗ 2 н/о н/о -8.1 -9.6 89 -13 -13 1016.2 1011.6
15 11.12 ЮЗ 2 20 км слабый снег 10/10 300 м
[Frnb Ns]
-8.8 -10.4 88 -13 -13 1015.8 1011.2 -5.5 0.1
18 11.12 ЮЗ 2 н/о н/о -9.2 -10.8 88 -14 -14 1015.4 1010.8
21 11.12 ЮЗ 1 20 км слабый снег 10/10 300 м
[Frnb Ns]
-9.4 -11.1 87 -12 -12 1014.9 1010.3
00 12.12 СЗ 1 н/о н/о -6.8 -8.3 89 -9 -9 1015.2 1010.7
03 12.12 СЗ 1 50 км в посл. час снег 3/0
[As trans]
-7.8 -9.3 89 -10 -10 1015.8 1011.3 -9.9 0.7 38
06 12.12 З 1 н/о н/о -9.0 -10.6 88 -11 -11 1016.1 1011.5 -9.9
09 12.12 штиль 0 20 км слабый снег 10/0
[Ac As]
-9.0 -10.6 88 -10 -10 1016.0 1011.4
12 12.12 штиль 0 н/о н/о -9.4 -11.0 88 -10 -10 1015.8 1011.2
15 12.12 З 1 20 км слабый снег 10/0
[Ac As]
-8.3 -9.8 89 -11 -11 1015.3 1010.7 -7.8 0.6
18 12.12 З 1 н/о н/о -9.3 -11.0 87 -12 -12 1014.8 1010.2
21 12.12 З 1 50 км ясно -9.2 -10.8 88 -12 -12 1014.1 1009.5
00 13.12 З 1 н/о н/о -10.4 -12.1 87 -13 -13 1013.0 1008.4
03 13.12 ЮЗ 1 50 км ясно -11.6 -13.5 86 -14 -14 1011.1 1006.5 -12.5 0.0 38
06 13.12 З 2 н/о н/о -6.5 -8.0 89 -11 -11 1010.8 1006.2
09 13.12 С 2 50 км {снег} 10/5 600 м
[Cu Sc Ac As]
-6.5 -8.0 89 -11 -11 1013.3 1008.8
12 13.12 СЗ 1 н/о н/о -10.7 -12.6 86 -13 -13 1017.3 1012.7
15 13.12 З 1 50 км 3/0
[Ac trans]
-14.4 -16.6 83 -17 -17 1017.7 1013.0 -5.8 0.3
18 13.12 ЮЗ 2 н/о н/о -14.5 -16.6 84 -19 -19 1013.8 1009.1
21 13.12 ЮЗ 5
{11}
10 км слабый снег {метель} 10/0
[As op]
-8.5 -10.2 87 -16 -16 1007.3 1002.7
00 14.12 З 4
{13}
н/о н/о -3.0 -4.4 90 -9 -9 1003.7 999.2
03 14.12 З 4-10
{12}
50 км позёмок {метель} 3/0
[Ac trans]
-2.5 -4.8 84 -8 -8 1003.3 998.8 -17.2 0.7 39
06 14.12 З 5-12
{12}
н/о н/о -2.6 -5.3 82 -9 -9 1002.7 998.3
09 14.12 З 5-10
{13}
50 км позёмок {метель} 4/3 600 м
[Sc Ac trans]
-2.1 -4.9 81 -9 -9 1003.0 998.6
12 14.12 З 6-13
{13}
н/о н/о -1.1 -4.3 79 -8 -8 1004.1 999.6
15 14.12 З 5-10
{13}
50 км позёмок {метель} 10/0
[Ac As]
-1.6 -5.1 77 -8 -8 1005.2 1000.7 -1.0
18 14.12 З 2
{10}
н/о н/о -2.6 -5.8 79 -6 -6 1007.0 1002.5
21 14.12 З 1 50 км 10/0
[Ac As]
-3.6 -6.2 82 -6 -6 1007.4 1003.0
00 15.12 штиль 0 н/о н/о -4.2 -6.4 85 -5 -5 1009.0 1004.5
03 15.12 В 1 50 км 10/10 600 м
[Sc]
-4.7 -6.3 89 -7 -7 1011.0 1006.5 -4.8 37
06 15.12 ЮВ 1 н/о н/о -4.8 -6.4 89 -7 -7 1012.7 1008.2 -4.9
09 15.12 ЮЗ 2 50 км в посл. час ливневой снег 9/6 300 м
[Cb cap Ac trans]
-5.7 -7.0 91 -10 -10 1012.8 1008.3
12 15.12 З 2 н/о н/о -3.8 -5.8 86 -8 -8 1012.6 1008.1
15 15.12 З 1 50 км 3/0
[Ac trans]
-6.4 -7.8 90 -9 -9 1013.1 1008.6 -3.7 0.0
18 15.12 штиль 0 н/о н/о -9.9 -11.5 88 -10 -10 1014.1 1009.5
21 15.12 СЗ 1 50 км ясно -8.3 -9.7 90 -11 -11 1014.9 1010.3

 

Местоположение метеостанции Полуй (Ямало-Ненецкий АО, Россия): широта 66.03 долгота 68.68 высота над уровнем моря 36 м.

В архиве по умолчанию представлена погода в Полуе за последнюю неделю. Архивные данные за месяц целиком и за предыдущие месяцы, начиная с января 2011 года, Вы можете получить, выбрав интересующий диапазон дат из раскрывающегося списка и нажав кнопку "Ввод!".


*Определитесь, кто Вы:
робот инопланетянин человек

Внимание! Время в таблицах - всемирное. Для получения местного времени необходимо прибавить поправку, которая в Полуе равна 5 ч.

Смотрите также архив погоды в соседних городах и на ближайших метеорологических станциях:

Погода в Белоярске (Ямало-Ненецкий АО, Россия) (97 км)
Погода в Салехарде (Ямало-Ненецкий АО, Россия) (106 км)
Погода в Питляре (Ямало-Ненецкий АО, Россия) (127 км)
Погода в Харпе (Ямало-Ненецкий АО, Россия) (155 км)
Погода в Лонг-Югане (Ямало-Ненецкий АО, Россия) (175 км)
Погода в Надыме (Ямало-Ненецкий АО, Россия) (193 км)
Погода в Мужах (Ямало-Ненецкий АО, Россия) (195 км)
Погода в Ныде (Ямало-Ненецкий АО, Россия) (201 км)
Погода в Елецкой (Коми, Россия) (233 км)
Погода в Новом Порте (Ямало-Ненецкий АО, Россия) (260 км)

Пояснения к столбцам:

Ветер - указаны скорость ветра в м/с - средняя за 10 мин, порывы в срок и между сроками (в фигурных скобках) и направление, откуда дует ветер: С - северный, СВ - северо-восточный, В - восточный, ЮВ - юго-восточный, Ю - южный, ЮЗ - юго-западный, З - западный, СЗ - северо-западный.
Видимость - горизонтальная дальность видимости в метрах или километрах. При видимости от 1 до 10 км при отсутствии осадков обычно наблюдается дымка, при ухудшении видимости до 1 км и менее - туман. В сухую погоду видимость может ухудшаться дымом, пылью или мглою.
Явления - указаны атмосферные явления, наблюдавшиеся в срок или в последний час перед сроком; фигурными скобками обозначены явления, наблюдавшиеся между сроками (за 1-3 часа до срока); квадратными скобками обозначены град или гололедные отложения с указанием их диаметра в мм.
Облачность - указаны через наклонную черту общая и нижняя облачность в баллах и высота нижней границы облаков в метрах; квадратными скобками обозначены формы облаков: Ci - перистые, Cs - перисто-слоистые, Cc - перисто-кучевые, Ac - высококучевые, As - высокослоистые, Sc - слоисто-кучевые, Ns - слоисто-дождевые, Cu - кучевые, Cb - кучево-дождевые. Подробнее классификацию облаков см. в Атласе облаков (PDF).
T - Температура воздуха - температура, измеренная на высоте 2 м над землей.
Td - Температура точки росы - температура, при понижении до которой содержащийся в воздухе водяной пар достигнет насыщения.
f - Относительная влажность воздуха - влажноcть воздуха, измеренная на высоте 2 м над землей.
Te - Эффективная температура - температура, которую ощущает одетый по сезону человек в тени. Характеристика душности погоды. При расчете учитывается влияние влажности воздуха и скорости ветра на теплоощущения человека.
Tes - Эффективная температура на солнце - температура, которую ощущает человек, с поправкой на солнечный нагрев. Характеристика знойности погоды. Зависит от высоты солнца над горизонтом, облачности и скорости ветра. Ночью, в пасмурную погоду, а также при ветре 12 м/с и более поправка равна нулю.
P - Атмосферное давление - приведенное к уровню моря атмосферное давление.
Po - Атмосферное давление - измеренное на уровне метеостанции атмосферное давление.
Tmin - Минимальная температура - минимум температуры воздуха на высоте 2 м над землей.
Tmax - Максимальная температура - максимум температуры воздуха на высоте 2 м над землей.
R - Количество осадков - Количество выпавших осадков за период времени, мм. При наведении курсора мыши на число - период времени, за который выпало указанное количество осадков.
R24 - Количество осадков - Количество выпавших осадков за 24 часа, мм.
S - Снежный покров - Высота снежного покрова, см. При наведении курсора мыши на число - состояние снежного покрова и степень покрытия местности в баллах.